{"data":{"norad_id":50470,"epoch":"2026-09-20T04:43:01.375680Z","epoch_age_seconds":52100,"freshness":"FRESH","line1":"1 50470U 21132B   26263.19654370  .00000054  00000+0  10554-3 0  9995","line2":"2 50470  87.9198 347.0028 0001660 105.0425 255.0890 13.17650589230597","mean_motion":13.17650589,"eccentricity":0.000166,"inclination_deg":87.9198,"raan_deg":347.0028,"arg_perigee_deg":105.0425,"mean_anomaly_deg":255.089,"bstar":0.00010554,"rev_number":23059,"period_min":109.28542149348,"perigee_km":1192.450246294,"apogee_km":1194.9640985593,"semimajor_km":7571.8441724267,"source":"CELESTRAK","updated_at":"2026-09-20T09:00:44.676580Z"}}